Time,TemperatureF,DewpointF,PressureIn,WindDirection,WindDirectionDegrees,WindSpeedMPH,WindSpeedGustMPH,Humidity,HourlyPrecipIn,Conditions,Clouds,dailyrainin,SoftwareType,DateUTC
2013-04-11 00:03:00,45.0,44.0,29.83,NNE,15,5.0,-999.0,95,-99.99,,,-99.99,,2013-04-11 04:03:00,
2013-04-11 00:13:00,45.0,44.0,29.86,North,359,7.0,-999.0,95,-99.99,,,-99.99,,2013-04-11 04:13:00,
2013-04-11 00:22:00,45.0,44.0,29.86,North,359,7.0,-999.0,95,-99.99,,,-99.99,,2013-04-11 04:22:00,
2013-04-11 00:33:00,45.0,44.0,29.82,SE,136,5.0,-999.0,95,-99.99,,,-99.99,,2013-04-11 04:33:00,
2013-04-11 00:43:00,45.0,44.0,29.82,SE,136,5.0,-999.0,95,-99.99,,,-99.99,,2013-04-11 04:43:00,
2013-04-11 00:52:00,44.0,43.0,29.78,SE,133,6.0,-999.0,95,-99.99,,,-99.99,,2013-04-11 04:52:00,
2013-04-11 01:03:00,44.0,43.0,29.80,SE,136,3.0,-999.0,95,-99.99,,,-99.99,,2013-04-11 05:03:00,
2013-04-11 01:13:00,44.0,43.0,29.80,SE,136,3.0,-999.0,95,-99.99,,,-99.99,,2013-04-11 05:13:00,
2013-04-11 01:23:00,44.0,43.0,29.78,SSE,167,4.0,-999.0,95,-99.99,,,-99.99,,2013-04-11 05:23:00,
2013-04-11 01:32:00,44.0,43.0,29.77,South,170,3.0,-999.0,95,-99.99,,,-99.99,,2013-04-11 05:32:00,
2013-04-11 01:42:00,44.0,43.0,29.77,South,170,3.0,-999.0,95,-99.99,,,-99.99,,2013-04-11 05:42:00,
2013-04-11 01:52:00,44.0,43.0,29.76,SSE,157,3.0,-999.0,95,-99.99,,,-99.99,,2013-04-11 05:52:00,
2013-04-11 02:02:00,44.0,43.0,29.75,SSE,157,3.0,-999.0,95,-99.99,,,-99.99,,2013-04-11 06:02:00,
2013-04-11 02:12:00,44.0,43.0,29.75,SSE,157,3.0,-999.0,95,-99.99,,,-99.99,,2013-04-11 06:12:00,
2013-04-11 02:22:00,44.0,43.0,29.74,South,171,3.0,-999.0,95,-99.99,,,-99.99,,2013-04-11 06:22:00,
2013-04-11 02:32:00,44.0,43.0,29.75,North,7,3.0,-999.0,96,-99.99,,,-99.99,,2013-04-11 06:32:00,
2013-04-11 02:42:00,44.0,43.0,29.75,North,7,3.0,-999.0,96,-99.99,,,-99.99,,2013-04-11 06:42:00,
2013-04-11 02:52:00,45.0,44.0,29.77,NW,322,4.0,-999.0,96,-99.99,,,-99.99,,2013-04-11 06:52:00,
2013-04-11 03:02:00,46.0,45.0,29.75,NNW,342,4.0,-999.0,96,-99.99,,,-99.99,,2013-04-11 07:02:00,
2013-04-11 03:12:00,46.0,45.0,29.75,NNW,342,4.0,-999.0,96,-99.99,,,-99.99,,2013-04-11 07:12:00,
2013-04-11 03:22:00,45.0,44.0,29.75,NNE,16,4.0,-999.0,96,-99.99,,,-99.99,,2013-04-11 07:22:00,
2013-04-11 03:32:00,45.0,44.0,29.75,NNE,15,4.0,-999.0,96,-99.99,,,-99.99,,2013-04-11 07:32:00,
2013-04-11 03:43:00,45.0,44.0,29.75,NNE,15,4.0,-999.0,96,-99.99,,,-99.99,,2013-04-11 07:43:00,
2013-04-11 03:52:00,44.0,43.0,29.73,North,1,7.0,-999.0,96,-99.99,,,-99.99,,2013-04-11 07:52:00,
2013-04-11 04:03:00,44.0,43.0,29.74,NE,45,7.0,-999.0,96,-99.99,,,-99.99,,2013-04-11 08:03:00,
2013-04-11 04:12:00,44.0,43.0,29.74,NE,45,7.0,-999.0,96,-99.99,,,-99.99,,2013-04-11 08:12:00,
2013-04-11 04:22:00,43.0,42.0,29.73,NNE,20,10.0,-999.0,96,-99.99,,,-99.99,,2013-04-11 08:22:00,
2013-04-11 04:32:00,43.0,42.0,29.74,NNE,30,10.0,-999.0,96,-99.99,,,-99.99,,2013-04-11 08:32:00,
2013-04-11 04:42:00,43.0,42.0,29.74,NNE,30,10.0,-999.0,96,-99.99,,,-99.99,,2013-04-11 08:42:00,
2013-04-11 04:52:00,43.0,42.0,29.75,NNE,14,9.0,-999.0,96,-99.99,,,-99.99,,2013-04-11 08:52:00,
2013-04-11 05:02:00,43.0,42.0,29.75,NNE,25,8.0,-999.0,96,-99.99,,,-99.99,,2013-04-11 09:02:00,
2013-04-11 05:12:00,43.0,42.0,29.75,NNE,25,8.0,-999.0,96,-99.99,,,-99.99,,2013-04-11 09:12:00,
2013-04-11 05:22:00,44.0,43.0,29.76,NE,44,5.0,-999.0,96,-99.99,,,-99.99,,2013-04-11 09:22:00,
2013-04-11 05:33:00,44.0,43.0,29.78,North,2,6.0,-999.0,96,-99.99,,,-99.99,,2013-04-11 09:33:00,
2013-04-11 05:43:00,44.0,43.0,29.78,North,2,6.0,-999.0,96,-99.99,,,-99.99,,2013-04-11 09:43:00,
2013-04-11 05:52:00,44.0,43.0,29.78,North,2,5.0,-999.0,96,-99.99,,,-99.99,,2013-04-11 09:52:00,
2013-04-11 06:03:00,44.0,43.0,29.78,NNE,17,5.0,-999.0,96,-99.99,,,-99.99,,2013-04-11 10:03:00,
2013-04-11 06:13:00,45.0,44.0,29.80,North,6,4.0,-999.0,96,-99.99,,,-99.99,,2013-04-11 10:13:00,
2013-04-11 06:23:00,45.0,44.0,29.80,North,6,4.0,-999.0,96,-99.99,,,-99.99,,2013-04-11 10:23:00,
2013-04-11 06:32:00,45.0,44.0,29.81,North,359,4.0,-999.0,96,-99.99,,,-99.99,,2013-04-11 10:32:00,
2013-04-11 06:42:00,45.0,44.0,29.81,North,359,4.0,-999.0,96,-99.99,,,-99.99,,2013-04-11 10:42:00,
2013-04-11 06:52:00,45.0,44.0,29.83,NNE,17,5.0,-999.0,96,-99.99,,,-99.99,,2013-04-11 10:52:00,
2013-04-11 07:03:00,45.0,44.0,29.83,NNE,17,5.0,-999.0,96,-99.99,,,-99.99,,2013-04-11 11:03:00,
2013-04-11 07:13:00,46.0,45.0,29.83,NNE,12,2.0,-999.0,96,-99.99,,,-99.99,,2013-04-11 11:13:00,
2013-04-11 07:23:00,46.0,45.0,29.84,North,359,2.0,-999.0,96,-99.99,,,-99.99,,2013-04-11 11:23:00,
2013-04-11 07:32:00,46.0,45.0,29.84,North,0,6.0,-999.0,96,-99.99,,,-99.99,,2013-04-11 11:32:00,
2013-04-11 07:43:00,46.0,45.0,29.84,North,0,6.0,-999.0,96,-99.99,,,-99.99,,2013-04-11 11:43:00,
2013-04-11 07:52:00,47.0,46.0,29.85,NE,56,3.0,-999.0,96,-99.99,,,-99.99,,2013-04-11 11:52:00,
2013-04-11 08:02:00,47.0,46.0,29.86,North,355,3.0,-999.0,96,-99.99,,,-99.99,,2013-04-11 12:02:00,
2013-04-11 08:13:00,47.0,46.0,29.86,North,355,3.0,-999.0,96,-99.99,,,-99.99,,2013-04-11 12:13:00,
2013-04-11 08:23:00,48.0,47.0,29.86,North,359,3.0,-999.0,96,-99.99,,,-99.99,,2013-04-11 12:23:00,
2013-04-11 08:32:00,48.0,47.0,29.86,North,359,3.0,-999.0,96,-99.99,,,-99.99,,2013-04-11 12:32:00,
2013-04-11 08:43:00,48.0,47.0,29.86,North,359,3.0,-999.0,96,-99.99,,,-99.99,,2013-04-11 12:43:00,
2013-04-11 08:52:00,48.0,47.0,29.86,North,4,1.0,-999.0,96,-99.99,,,-99.99,,2013-04-11 12:52:00,
2013-04-11 09:02:00,48.0,47.0,29.87,NNE,17,2.0,-999.0,96,-99.99,,,-99.99,,2013-04-11 13:02:00,
2013-04-11 09:13:00,49.0,48.0,29.87,NNE,17,1.0,-999.0,96,-99.99,,,-99.99,,2013-04-11 13:13:00,
2013-04-11 09:23:00,49.0,48.0,29.87,NNE,17,1.0,-999.0,96,-99.99,,,-99.99,,2013-04-11 13:23:00,
2013-04-11 09:32:00,47.0,46.0,29.88,WSW,255,3.0,-999.0,96,-99.99,,,-99.99,,2013-04-11 13:32:00,
2013-04-11 09:43:00,47.0,46.0,29.88,WSW,255,3.0,-999.0,96,-99.99,,,-99.99,,2013-04-11 13:43:00,
2013-04-11 09:53:00,47.0,46.0,29.89,WSW,255,0.0,-999.0,96,-99.99,,,-99.99,,2013-04-11 13:53:00,
2013-04-11 10:03:00,48.0,47.0,29.89,NNE,16,2.0,-999.0,96,-99.99,,,-99.99,,2013-04-11 14:03:00,
2013-04-11 10:13:00,48.0,47.0,29.89,NNE,16,2.0,-999.0,96,-99.99,,,-99.99,,2013-04-11 14:13:00,
2013-04-11 10:22:00,50.0,49.0,29.89,NNE,23,5.0,-999.0,96,-99.99,,,-99.99,,2013-04-11 14:22:00,
2013-04-11 10:33:00,50.0,49.0,29.89,NE,38,8.0,-999.0,96,-99.99,,,-99.99,,2013-04-11 14:33:00,
2013-04-11 10:42:00,50.0,49.0,29.89,NE,38,8.0,-999.0,96,-99.99,,,-99.99,,2013-04-11 14:42:00,
2013-04-11 10:52:00,51.0,50.0,29.89,NNE,31,7.0,-999.0,96,-99.99,,,-99.99,,2013-04-11 14:52:00,
2013-04-11 11:02:00,52.0,51.0,29.89,NE,44,7.0,-999.0,96,-99.99,,,-99.99,,2013-04-11 15:02:00,
2013-04-11 11:12:00,52.0,51.0,29.89,NE,44,7.0,-999.0,96,-99.99,,,-99.99,,2013-04-11 15:12:00,
2013-04-11 11:22:00,53.0,51.0,29.89,ENE,64,8.0,-999.0,94,-99.99,,,-99.99,,2013-04-11 15:22:00,
2013-04-11 11:32:00,54.0,51.0,29.89,NE,44,7.0,-999.0,91,-99.99,,,-99.99,,2013-04-11 15:32:00,
2013-04-11 11:43:00,54.0,51.0,29.89,NE,44,7.0,-999.0,91,-99.99,,,-99.99,,2013-04-11 15:43:00,
2013-04-11 11:52:00,54.0,51.0,29.89,NE,53,7.0,-999.0,88,-99.99,,,-99.99,,2013-04-11 15:52:00,
2013-04-11 12:02:00,54.0,50.0,29.90,North,7,7.0,-999.0,87,-99.99,,,-99.99,,2013-04-11 16:02:00,
2013-04-11 12:13:00,54.0,50.0,29.90,North,7,7.0,-999.0,87,-99.99,,,-99.99,,2013-04-11 16:13:00,
2013-04-11 12:23:00,56.0,51.0,29.90,ENE,75,5.0,-999.0,83,-99.99,,,-99.99,,2013-04-11 16:23:00,
2013-04-11 12:32:00,56.0,51.0,29.90,East,100,5.0,-999.0,82,-99.99,,,-99.99,,2013-04-11 16:32:00,
2013-04-11 12:42:00,56.0,51.0,29.90,East,100,5.0,-999.0,82,-99.99,,,-99.99,,2013-04-11 16:42:00,
2013-04-11 12:52:00,54.0,49.0,29.91,ENE,75,8.0,-999.0,84,-99.99,,,-99.99,,2013-04-11 16:52:00,
2013-04-11 13:03:00,53.0,49.0,29.91,East,79,10.0,-999.0,85,-99.99,,,-99.99,,2013-04-11 17:03:00,
2013-04-11 13:13:00,53.0,49.0,29.91,East,79,10.0,-999.0,85,-99.99,,,-99.99,,2013-04-11 17:13:00,
2013-04-11 13:23:00,52.0,48.0,29.92,ENE,68,9.0,-999.0,85,-99.99,,,-99.99,,2013-04-11 17:23:00,
2013-04-11 13:33:00,51.0,47.0,29.92,SE,133,7.0,-999.0,85,-99.99,,,-99.99,,2013-04-11 17:33:00,
2013-04-11 13:43:00,51.0,47.0,29.92,SE,133,7.0,-999.0,85,-99.99,,,-99.99,,2013-04-11 17:43:00,
2013-04-11 13:52:00,50.0,46.0,29.93,ESE,110,8.0,-999.0,86,-99.99,,,-99.99,,2013-04-11 17:52:00,
2013-04-11 14:03:00,50.0,46.0,29.93,East,98,8.0,-999.0,87,-99.99,,,-99.99,,2013-04-11 18:03:00,
2013-04-11 14:13:00,50.0,46.0,29.93,East,98,8.0,-999.0,87,-99.99,,,-99.99,,2013-04-11 18:13:00,
2013-04-11 14:23:00,49.0,46.0,29.93,ESE,104,8.0,-999.0,88,-99.99,,,-99.99,,2013-04-11 18:23:00,
2013-04-11 14:33:00,48.0,44.0,29.93,ESE,113,10.0,-999.0,87,-99.99,,,-99.99,,2013-04-11 18:33:00,
2013-04-11 14:43:00,48.0,44.0,29.93,ESE,113,10.0,-999.0,87,-99.99,,,-99.99,,2013-04-11 18:43:00,
2013-04-11 14:52:00,47.0,44.0,29.93,East,89,12.0,-999.0,88,-99.99,,,-99.99,,2013-04-11 18:52:00,
2013-04-11 15:04:00,49.0,45.0,29.92,East,85,10.0,-999.0,87,-99.99,,,-99.99,,2013-04-11 19:04:00,
2013-04-11 15:14:00,49.0,45.0,29.92,East,85,10.0,-999.0,87,-99.99,,,-99.99,,2013-04-11 19:14:00,
2013-04-11 15:22:00,47.0,43.0,29.93,East,99,13.0,-999.0,86,-99.99,,,-99.99,,2013-04-11 19:22:00,
2013-04-11 15:33:00,48.0,44.0,29.94,ESE,118,12.0,-999.0,85,-99.99,,,-99.99,,2013-04-11 19:33:00,
2013-04-11 15:43:00,48.0,44.0,29.94,ESE,118,12.0,-999.0,85,-99.99,,,-99.99,,2013-04-11 19:43:00,
2013-04-11 15:53:00,48.0,43.0,29.94,ENE,77,12.0,-999.0,84,-99.99,,,-99.99,,2013-04-11 19:53:00,
2013-04-11 16:03:00,47.0,42.0,29.93,East,93,13.0,-999.0,84,-99.99,,,-99.99,,2013-04-11 20:03:00,
2013-04-11 16:13:00,47.0,42.0,29.93,East,93,13.0,-999.0,84,-99.99,,,-99.99,,2013-04-11 20:13:00,
2013-04-11 16:22:00,47.0,42.0,29.93,East,98,14.0,-999.0,84,-99.99,,,-99.99,,2013-04-11 20:22:00,
2013-04-11 16:33:00,47.0,42.0,29.93,NE,55,13.0,-999.0,83,-99.99,,,-99.99,,2013-04-11 20:33:00,
2013-04-11 16:43:00,47.0,42.0,29.93,NE,55,13.0,-999.0,83,-99.99,,,-99.99,,2013-04-11 20:43:00,
2013-04-11 16:52:00,48.0,43.0,29.93,East,84,12.0,-999.0,83,-99.99,,,-99.99,,2013-04-11 20:52:00,
2013-04-11 17:03:00,47.0,42.0,29.93,East,101,11.0,-999.0,83,-99.99,,,-99.99,,2013-04-11 21:03:00,
2013-04-11 17:13:00,47.0,42.0,29.93,East,101,11.0,-999.0,83,-99.99,,,-99.99,,2013-04-11 21:13:00,
2013-04-11 17:22:00,46.0,41.0,29.93,East,86,9.0,-999.0,83,-99.99,,,-99.99,,2013-04-11 21:22:00,
2013-04-11 17:33:00,46.0,42.0,29.94,ESE,108,9.0,-999.0,85,-99.99,,,-99.99,,2013-04-11 21:33:00,
2013-04-11 17:43:00,46.0,42.0,29.94,ESE,108,9.0,-999.0,85,-99.99,,,-99.99,,2013-04-11 21:43:00,
2013-04-11 17:53:00,45.0,41.0,29.94,ESE,113,9.0,-999.0,87,-99.99,,,-99.99,,2013-04-11 21:53:00,
2013-04-11 18:03:00,45.0,41.0,29.95,East,101,9.0,-999.0,87,-99.99,,,-99.99,,2013-04-11 22:03:00,
2013-04-11 18:13:00,45.0,41.0,29.95,East,101,9.0,-999.0,87,-99.99,,,-99.99,,2013-04-11 22:13:00,
2013-04-11 18:23:00,44.0,40.0,29.95,SE,129,9.0,-999.0,87,-99.99,,,-99.99,,2013-04-11 22:23:00,
2013-04-11 18:33:00,44.0,40.0,29.95,East,98,7.0,-999.0,86,-99.99,,,-99.99,,2013-04-11 22:33:00,
2013-04-11 18:44:00,44.0,40.0,29.95,East,98,7.0,-999.0,86,-99.99,,,-99.99,,2013-04-11 22:44:00,
2013-04-11 18:53:00,44.0,40.0,29.95,ESE,115,8.0,-999.0,85,-99.99,,,-99.99,,2013-04-11 22:53:00,
2013-04-11 19:04:00,44.0,39.0,29.96,SE,124,8.0,-999.0,84,-99.99,,,-99.99,,2013-04-11 23:04:00,
2013-04-11 19:13:00,44.0,39.0,29.96,SE,124,8.0,-999.0,84,-99.99,,,-99.99,,2013-04-11 23:13:00,
2013-04-11 19:23:00,44.0,39.0,29.97,ESE,113,8.0,-999.0,83,-99.99,,,-99.99,,2013-04-11 23:23:00,
2013-04-11 19:33:00,44.0,39.0,29.97,SE,141,9.0,-999.0,84,-99.99,,,-99.99,,2013-04-11 23:33:00,
2013-04-11 19:43:00,44.0,39.0,29.97,SE,141,9.0,-999.0,84,-99.99,,,-99.99,,2013-04-11 23:43:00,
2013-04-11 19:53:00,44.0,40.0,29.98,SE,125,7.0,-999.0,85,-99.99,,,-99.99,,2013-04-11 23:53:00,
2013-04-11 20:02:00,44.0,40.0,29.98,ESE,112,7.0,-999.0,86,-99.99,,,-99.99,,2013-04-12 00:02:00,
2013-04-11 20:12:00,44.0,40.0,29.98,ESE,112,7.0,-999.0,86,-99.99,,,-99.99,,2013-04-12 00:12:00,
2013-04-11 20:22:00,44.0,40.0,29.98,ESE,103,8.0,-999.0,85,-99.99,,,-99.99,,2013-04-12 00:22:00,
2013-04-11 20:33:00,44.0,40.0,29.98,ESE,122,9.0,-999.0,85,-99.99,,,-99.99,,2013-04-12 00:33:00,
2013-04-11 20:42:00,44.0,40.0,29.98,ESE,122,9.0,-999.0,85,-99.99,,,-99.99,,2013-04-12 00:42:00,
2013-04-11 20:52:00,44.0,40.0,29.98,East,92,8.0,-999.0,86,-99.99,,,-99.99,,2013-04-12 00:52:00,
2013-04-11 21:02:00,44.0,40.0,29.98,SE,127,9.0,-999.0,86,-99.99,,,-99.99,,2013-04-12 01:02:00,
2013-04-11 21:12:00,44.0,40.0,29.98,SE,127,9.0,-999.0,86,-99.99,,,-99.99,,2013-04-12 01:12:00,
2013-04-11 21:22:00,43.0,39.0,29.99,ESE,123,11.0,-999.0,86,-99.99,,,-99.99,,2013-04-12 01:22:00,
2013-04-11 21:32:00,43.0,39.0,29.99,ESE,120,11.0,-999.0,85,-99.99,,,-99.99,,2013-04-12 01:32:00,
2013-04-11 21:42:00,43.0,39.0,29.99,ESE,120,11.0,-999.0,85,-99.99,,,-99.99,,2013-04-12 01:42:00,
2013-04-11 21:52:00,43.0,39.0,29.98,ESE,112,11.0,-999.0,85,-99.99,,,-99.99,,2013-04-12 01:52:00,
2013-04-11 22:03:00,43.0,39.0,30.00,East,96,8.0,-999.0,85,-99.99,,,-99.99,,2013-04-12 02:03:00,
2013-04-11 22:12:00,43.0,39.0,30.00,East,96,8.0,-999.0,85,-99.99,,,-99.99,,2013-04-12 02:12:00,
2013-04-11 22:22:00,43.0,39.0,30.01,East,90,6.0,-999.0,85,-99.99,,,-99.99,,2013-04-12 02:22:00,
2013-04-11 22:32:00,43.0,38.0,30.01,East,98,10.0,-999.0,84,-99.99,,,-99.99,,2013-04-12 02:32:00,
2013-04-11 22:42:00,43.0,38.0,30.01,East,98,10.0,-999.0,84,-99.99,,,-99.99,,2013-04-12 02:42:00,
2013-04-11 22:52:00,43.0,39.0,30.01,ENE,78,8.0,-999.0,85,-99.99,,,-99.99,,2013-04-12 02:52:00,
2013-04-11 23:02:00,43.0,39.0,30.01,East,82,9.0,-999.0,86,-99.99,,,-99.99,,2013-04-12 03:02:00,
2013-04-11 23:12:00,43.0,39.0,30.01,East,82,9.0,-999.0,86,-99.99,,,-99.99,,2013-04-12 03:12:00,
2013-04-11 23:22:00,43.0,39.0,30.01,East,82,9.0,-999.0,86,-99.99,,,-99.99,,2013-04-12 03:22:00,
2013-04-11 23:33:00,43.0,39.0,30.01,East,95,9.0,-999.0,86,-99.99,,,-99.99,,2013-04-12 03:33:00,
2013-04-11 23:43:00,43.0,39.0,30.01,East,95,9.0,-999.0,86,-99.99,,,-99.99,,2013-04-12 03:43:00,
2013-04-11 23:53:00,43.0,39.0,30.00,ENE,62,9.0,-999.0,87,-99.99,,,-99.99,,2013-04-12 03:53:00,